Year,Month,Day,Hour,Minute,Value (Times are PST for temperature in C)
2010,07,08,00,00,18.30
2010,07,08,00,01,18.20
2010,07,08,00,02,18.20
2010,07,08,00,03,18.20
2010,07,08,00,04,18.20
2010,07,08,00,05,18.20
2010,07,08,00,06,18.20
2010,07,08,00,07,18.20
2010,07,08,00,08,18.20
2010,07,08,00,09,18.20
2010,07,08,00,10,18.20
2010,07,08,00,11,18.20
2010,07,08,00,12,18.20
2010,07,08,00,13,18.20
2010,07,08,00,14,18.20
2010,07,08,00,15,18.20
2010,07,08,00,16,18.20
2010,07,08,00,17,18.20
2010,07,08,00,18,18.20
2010,07,08,00,19,18.20
2010,07,08,00,20,18.20
2010,07,08,00,21,18.20
2010,07,08,00,22,18.20
2010,07,08,00,23,18.20
2010,07,08,00,24,18.20
2010,07,08,00,25,18.20
2010,07,08,00,26,18.20
2010,07,08,00,27,18.20
2010,07,08,00,28,18.20
2010,07,08,00,29,18.20
2010,07,08,00,30,18.20
2010,07,08,00,31,18.20
2010,07,08,00,32,18.20
2010,07,08,00,33,18.10
2010,07,08,00,34,18.10
2010,07,08,00,35,18.10
2010,07,08,00,36,18.10
2010,07,08,00,37,18.10
2010,07,08,00,38,18.00
2010,07,08,00,39,18.00
2010,07,08,00,40,18.00
2010,07,08,00,41,18.00
2010,07,08,00,42,18.00
2010,07,08,00,43,18.00
2010,07,08,00,44,18.00
2010,07,08,00,45,18.00
2010,07,08,00,46,18.00
2010,07,08,00,47,18.00
2010,07,08,00,48,18.00
2010,07,08,00,49,17.90
2010,07,08,00,50,17.90
2010,07,08,00,51,17.90
2010,07,08,00,52,17.90
2010,07,08,00,53,17.80
2010,07,08,00,54,17.80
2010,07,08,00,55,17.80
2010,07,08,00,56,17.70
2010,07,08,00,57,17.70
2010,07,08,00,58,17.70
2010,07,08,00,59,17.70
2010,07,08,01,00,17.60
2010,07,08,01,01,17.60
2010,07,08,01,02,17.60
2010,07,08,01,03,17.50
2010,07,08,01,04,17.50
2010,07,08,01,05,17.50
2010,07,08,01,06,17.40
2010,07,08,01,07,17.40
2010,07,08,01,08,17.40
2010,07,08,01,09,17.30
2010,07,08,01,10,17.30
2010,07,08,01,11,17.30
2010,07,08,01,12,17.30
2010,07,08,01,13,17.30
2010,07,08,01,14,17.30
2010,07,08,01,15,17.20
2010,07,08,01,16,17.20
2010,07,08,01,17,17.20
2010,07,08,01,18,17.20
2010,07,08,01,19,17.20
2010,07,08,01,20,17.20
2010,07,08,01,21,17.10
2010,07,08,01,22,17.10
2010,07,08,01,23,17.10
2010,07,08,01,24,17.10
2010,07,08,01,25,17.10
2010,07,08,01,26,17.10
2010,07,08,01,27,17.00
2010,07,08,01,28,17.00
2010,07,08,01,29,17.00
2010,07,08,01,30,16.90
2010,07,08,01,31,16.90
2010,07,08,01,32,16.80
2010,07,08,01,33,16.80
2010,07,08,01,34,16.80
2010,07,08,01,35,16.80
2010,07,08,01,36,16.80
2010,07,08,01,37,16.80
2010,07,08,01,38,16.80
2010,07,08,01,39,16.80
2010,07,08,01,40,16.80
2010,07,08,01,41,16.70
2010,07,08,01,42,16.70
2010,07,08,01,43,16.70
2010,07,08,01,44,16.70
2010,07,08,01,45,16.70
2010,07,08,01,46,16.70
2010,07,08,01,47,16.70
2010,07,08,01,48,16.70
2010,07,08,01,49,16.60
2010,07,08,01,50,16.60
2010,07,08,01,51,16.60
2010,07,08,01,52,16.60
2010,07,08,01,53,16.60
2010,07,08,01,54,16.60
2010,07,08,01,55,16.60
2010,07,08,01,56,16.60
2010,07,08,01,57,16.60
2010,07,08,01,58,16.60
2010,07,08,01,59,16.60
2010,07,08,02,00,16.60
2010,07,08,02,01,16.60
2010,07,08,02,02,16.50
2010,07,08,02,03,16.50
2010,07,08,02,04,16.50
2010,07,08,02,05,16.50
2010,07,08,02,06,16.50
2010,07,08,02,07,16.40
2010,07,08,02,08,16.40
2010,07,08,02,09,16.40
2010,07,08,02,10,16.40
2010,07,08,02,11,16.40
2010,07,08,02,12,16.30
2010,07,08,02,13,16.30
2010,07,08,02,14,16.30
2010,07,08,02,15,16.30
2010,07,08,02,16,16.30
2010,07,08,02,17,16.30
2010,07,08,02,18,16.20
2010,07,08,02,19,16.20
2010,07,08,02,20,16.20
2010,07,08,02,21,16.20
2010,07,08,02,22,16.20
2010,07,08,02,23,16.20
2010,07,08,02,24,16.10
2010,07,08,02,25,16.10
2010,07,08,02,26,16.10
2010,07,08,02,27,16.10
2010,07,08,02,28,16.00
2010,07,08,02,29,16.00
2010,07,08,02,30,15.90
2010,07,08,02,31,15.90
2010,07,08,02,32,15.90
2010,07,08,02,33,15.90
2010,07,08,02,34,15.90
2010,07,08,02,35,15.90
2010,07,08,02,36,15.90
2010,07,08,02,37,15.90
2010,07,08,02,38,15.80
2010,07,08,02,39,15.80
2010,07,08,02,40,15.80
2010,07,08,02,41,15.90
2010,07,08,02,42,15.80
2010,07,08,02,43,15.80
2010,07,08,02,44,15.80
2010,07,08,02,45,15.80
2010,07,08,02,46,15.80
2010,07,08,02,47,15.80
2010,07,08,02,48,15.80
2010,07,08,02,49,15.80
2010,07,08,02,50,15.80
2010,07,08,02,51,15.80
2010,07,08,02,52,15.80
2010,07,08,02,53,15.70
2010,07,08,02,54,15.70
2010,07,08,02,55,15.80
2010,07,08,02,56,15.80
2010,07,08,02,57,15.80
2010,07,08,02,58,15.80
2010,07,08,02,59,15.80
2010,07,08,03,00,15.80
2010,07,08,03,01,15.80
2010,07,08,03,02,15.70
2010,07,08,03,03,15.70
2010,07,08,03,04,15.80
2010,07,08,03,05,15.80
2010,07,08,03,06,15.80
2010,07,08,03,07,15.80
2010,07,08,03,08,15.80
2010,07,08,03,09,15.80
2010,07,08,03,10,15.80
2010,07,08,03,11,15.80
2010,07,08,03,12,15.80
2010,07,08,03,13,15.80
2010,07,08,03,14,15.80
2010,07,08,03,15,15.80
2010,07,08,03,16,15.80
2010,07,08,03,17,15.80
2010,07,08,03,18,15.80
2010,07,08,03,19,15.70
2010,07,08,03,20,15.70
2010,07,08,03,21,15.70
2010,07,08,03,22,15.70
2010,07,08,03,23,15.80
2010,07,08,03,24,15.80
2010,07,08,03,25,15.80
2010,07,08,03,26,15.80
2010,07,08,03,27,15.80
2010,07,08,03,28,15.80
2010,07,08,03,29,15.80
2010,07,08,03,30,15.80
2010,07,08,03,31,15.80
2010,07,08,03,32,15.80
2010,07,08,03,33,15.80
2010,07,08,03,34,15.80
2010,07,08,03,35,15.80
2010,07,08,03,36,15.80
2010,07,08,03,37,15.80
2010,07,08,03,38,15.80
2010,07,08,03,39,15.80
2010,07,08,03,40,15.90
2010,07,08,03,41,15.90
2010,07,08,03,42,16.00
2010,07,08,03,43,16.00
2010,07,08,03,44,16.10
2010,07,08,03,45,16.20
2010,07,08,03,46,16.30
2010,07,08,03,47,16.30
2010,07,08,03,48,16.40
2010,07,08,03,49,16.50
2010,07,08,03,50,16.60
2010,07,08,03,51,16.70
2010,07,08,03,52,16.80
2010,07,08,03,53,16.80
2010,07,08,03,54,16.80
2010,07,08,03,55,16.80
2010,07,08,03,56,16.80
2010,07,08,03,57,16.80
2010,07,08,03,58,16.70
2010,07,08,03,59,16.70
2010,07,08,04,00,16.60
2010,07,08,04,01,16.50
2010,07,08,04,02,16.40
2010,07,08,04,03,16.40
2010,07,08,04,04,16.30
2010,07,08,04,05,16.30
2010,07,08,04,06,16.30
2010,07,08,04,07,16.40
2010,07,08,04,08,16.40
2010,07,08,04,09,16.40
2010,07,08,04,10,16.40
2010,07,08,04,11,16.40
2010,07,08,04,12,16.40
2010,07,08,04,13,16.40
2010,07,08,04,14,16.30
2010,07,08,04,15,16.30
2010,07,08,04,16,16.30
2010,07,08,04,17,16.20
2010,07,08,04,18,16.30
2010,07,08,04,19,16.40
2010,07,08,04,20,16.50
2010,07,08,04,21,16.60
2010,07,08,04,22,16.70
2010,07,08,04,23,16.80
2010,07,08,04,24,16.90
2010,07,08,04,25,17.00
2010,07,08,04,26,17.10
2010,07,08,04,27,17.20
2010,07,08,04,28,17.30
2010,07,08,04,29,17.30
2010,07,08,04,30,17.40
2010,07,08,04,31,17.50
2010,07,08,04,32,17.50
2010,07,08,04,33,17.60
2010,07,08,04,34,17.60
2010,07,08,04,35,17.60
2010,07,08,04,36,17.60
2010,07,08,04,37,17.60
2010,07,08,04,38,17.60
2010,07,08,04,39,17.60
2010,07,08,04,40,17.50
2010,07,08,04,41,17.40
2010,07,08,04,42,17.30
2010,07,08,04,43,17.20
2010,07,08,04,44,17.10
2010,07,08,04,45,17.10
2010,07,08,04,46,17.10
2010,07,08,04,47,17.10
2010,07,08,04,48,17.10
2010,07,08,04,49,17.00
2010,07,08,04,50,17.00
2010,07,08,04,51,16.90
2010,07,08,04,52,16.80
2010,07,08,04,53,16.70
2010,07,08,04,54,16.60
2010,07,08,04,55,16.50
2010,07,08,04,56,16.40
2010,07,08,04,57,16.30
2010,07,08,04,58,16.30
2010,07,08,04,59,16.20
2010,07,08,05,00,16.20
2010,07,08,05,01,16.20
2010,07,08,05,02,16.10
2010,07,08,05,03,16.10
2010,07,08,05,04,16.00
2010,07,08,05,05,16.00
2010,07,08,05,06,15.90
2010,07,08,05,07,15.90
2010,07,08,05,08,15.80
2010,07,08,05,09,15.90
2010,07,08,05,10,15.90
2010,07,08,05,11,15.90
2010,07,08,05,12,16.00
2010,07,08,05,13,16.10
2010,07,08,05,14,16.10
2010,07,08,05,15,16.00
2010,07,08,05,16,16.00
2010,07,08,05,17,15.90
2010,07,08,05,18,15.80
2010,07,08,05,19,15.70
2010,07,08,05,20,15.70
2010,07,08,05,21,15.70
2010,07,08,05,22,15.60
2010,07,08,05,23,15.60
2010,07,08,05,24,15.60
2010,07,08,05,25,15.60
2010,07,08,05,26,15.60
2010,07,08,05,27,15.60
2010,07,08,05,28,15.60
2010,07,08,05,29,15.50
2010,07,08,05,30,15.50
2010,07,08,05,31,15.40
2010,07,08,05,32,15.40
2010,07,08,05,33,15.40
2010,07,08,05,34,15.40
2010,07,08,05,35,15.40
2010,07,08,05,36,15.40
2010,07,08,05,37,15.30
2010,07,08,05,38,15.30
2010,07,08,05,39,15.30
2010,07,08,05,40,15.30
2010,07,08,05,41,15.30
2010,07,08,05,42,15.30
2010,07,08,05,43,15.30
2010,07,08,05,44,15.30
2010,07,08,05,45,15.30
2010,07,08,05,46,15.30
2010,07,08,05,47,15.30
2010,07,08,05,48,15.30
2010,07,08,05,49,15.30
2010,07,08,05,50,15.40
2010,07,08,05,51,15.40
2010,07,08,05,52,15.40
2010,07,08,05,53,15.40
2010,07,08,05,54,15.40
2010,07,08,05,55,15.40
2010,07,08,05,56,15.40
2010,07,08,05,57,15.50
2010,07,08,05,58,15.50
2010,07,08,05,59,15.50
2010,07,08,06,00,15.50
2010,07,08,06,01,15.60
2010,07,08,06,02,15.60
2010,07,08,06,03,15.60
2010,07,08,06,04,15.60
2010,07,08,06,05,15.60
2010,07,08,06,06,15.60
2010,07,08,06,07,15.70
2010,07,08,06,08,15.70
2010,07,08,06,09,15.70
2010,07,08,06,10,15.70
2010,07,08,06,11,15.70
2010,07,08,06,12,15.70
2010,07,08,06,13,15.70
2010,07,08,06,14,15.70
2010,07,08,06,15,15.70
2010,07,08,06,16,15.80
2010,07,08,06,17,15.80
2010,07,08,06,18,15.80
2010,07,08,06,19,15.80
2010,07,08,06,20,15.80
2010,07,08,06,21,15.80
2010,07,08,06,22,15.90
2010,07,08,06,23,15.90
2010,07,08,06,24,15.90
2010,07,08,06,25,16.00
2010,07,08,06,26,16.00
2010,07,08,06,27,16.10
2010,07,08,06,28,16.10
2010,07,08,06,29,16.10
2010,07,08,06,30,16.10
2010,07,08,06,31,16.20
2010,07,08,06,32,16.20
2010,07,08,06,33,16.20
2010,07,08,06,34,16.30
2010,07,08,06,35,16.30
2010,07,08,06,36,16.40
2010,07,08,06,37,16.40
2010,07,08,06,38,16.40
2010,07,08,06,39,16.50
2010,07,08,06,40,16.50
2010,07,08,06,41,16.60
2010,07,08,06,42,16.60
2010,07,08,06,43,16.60
2010,07,08,06,44,16.70
2010,07,08,06,45,16.70
2010,07,08,06,46,16.80
2010,07,08,06,47,16.80
2010,07,08,06,48,16.80
2010,07,08,06,49,16.90
2010,07,08,06,50,16.90
2010,07,08,06,51,17.00
2010,07,08,06,52,17.00
2010,07,08,06,53,17.10
2010,07,08,06,54,17.10
2010,07,08,06,55,17.10
2010,07,08,06,56,17.20
2010,07,08,06,57,17.20
2010,07,08,06,58,17.30
2010,07,08,06,59,17.30
2010,07,08,07,00,17.40
2010,07,08,07,01,17.50
2010,07,08,07,02,17.50
2010,07,08,07,03,17.60
2010,07,08,07,04,17.60
2010,07,08,07,05,17.70
2010,07,08,07,06,17.80
2010,07,08,07,07,17.80
2010,07,08,07,08,17.90
2010,07,08,07,09,18.00
2010,07,08,07,10,18.10
2010,07,08,07,11,18.20
2010,07,08,07,12,18.30
2010,07,08,07,13,18.40
2010,07,08,07,14,18.50
2010,07,08,07,15,18.60
2010,07,08,07,16,18.70
2010,07,08,07,17,18.90
2010,07,08,07,18,19.00
2010,07,08,07,19,19.10
2010,07,08,07,20,19.20
2010,07,08,07,21,19.30
2010,07,08,07,22,19.40
2010,07,08,07,23,19.60
2010,07,08,07,24,19.70
2010,07,08,07,25,19.80
2010,07,08,07,26,19.90
2010,07,08,07,27,20.00
2010,07,08,07,28,20.10
2010,07,08,07,29,20.10
2010,07,08,07,30,20.20
2010,07,08,07,31,20.30
2010,07,08,07,32,20.40
2010,07,08,07,33,20.50
2010,07,08,07,34,20.60
2010,07,08,07,35,20.70
2010,07,08,07,36,20.70
2010,07,08,07,37,20.80
2010,07,08,07,38,20.90
2010,07,08,07,39,20.90
2010,07,08,07,40,21.00
2010,07,08,07,41,21.10
2010,07,08,07,42,21.10
2010,07,08,07,43,21.20
2010,07,08,07,44,21.20
2010,07,08,07,45,21.20
2010,07,08,07,46,21.30
2010,07,08,07,47,21.30
2010,07,08,07,48,21.30
2010,07,08,07,49,21.30
2010,07,08,07,50,21.40
2010,07,08,07,51,21.40
2010,07,08,07,52,21.50
2010,07,08,07,53,21.50
2010,07,08,07,54,21.60
2010,07,08,07,55,21.60
2010,07,08,07,56,21.70
2010,07,08,07,57,21.70
2010,07,08,07,58,21.80
2010,07,08,07,59,21.80
2010,07,08,08,00,21.90
2010,07,08,08,01,22.00
2010,07,08,08,02,22.10
2010,07,08,08,03,22.20
2010,07,08,08,04,22.20
2010,07,08,08,05,22.30
2010,07,08,08,06,22.40
2010,07,08,08,07,22.50
2010,07,08,08,08,22.60
2010,07,08,08,09,22.70
2010,07,08,08,10,22.80
2010,07,08,08,11,23.00
2010,07,08,08,12,23.10
2010,07,08,08,13,23.10
2010,07,08,08,14,23.20
2010,07,08,08,15,23.30
2010,07,08,08,16,23.40
2010,07,08,08,17,23.50
2010,07,08,08,18,23.60
2010,07,08,08,19,23.70
2010,07,08,08,20,23.80
2010,07,08,08,21,23.90
2010,07,08,08,22,24.00
2010,07,08,08,23,24.00
2010,07,08,08,24,24.10
2010,07,08,08,25,24.20
2010,07,08,08,26,24.20
2010,07,08,08,27,24.30
2010,07,08,08,28,24.40
2010,07,08,08,29,24.50
2010,07,08,08,30,24.50
2010,07,08,08,31,24.60
2010,07,08,08,32,24.70
2010,07,08,08,33,24.70
2010,07,08,08,34,24.80
2010,07,08,08,35,24.80
2010,07,08,08,36,24.90
2010,07,08,08,37,24.90
2010,07,08,08,38,25.00
2010,07,08,08,39,25.00
2010,07,08,08,40,25.10
2010,07,08,08,41,25.10
2010,07,08,08,42,25.10
2010,07,08,08,43,25.20
2010,07,08,08,44,25.20
2010,07,08,08,45,25.20
2010,07,08,08,46,25.20
2010,07,08,08,47,25.30
2010,07,08,08,48,25.30
2010,07,08,08,49,25.30
2010,07,08,08,50,25.30
2010,07,08,08,51,25.30
2010,07,08,08,52,25.30
2010,07,08,08,53,25.30
2010,07,08,08,54,25.40
2010,07,08,08,55,25.40
2010,07,08,08,56,25.40
2010,07,08,08,57,25.40
2010,07,08,08,58,25.40
2010,07,08,08,59,25.50
2010,07,08,09,00,25.50
2010,07,08,09,01,25.60
2010,07,08,09,02,25.60
2010,07,08,09,03,25.60
2010,07,08,09,04,25.60
2010,07,08,09,05,25.70
2010,07,08,09,06,25.70
2010,07,08,09,07,25.70
2010,07,08,09,08,25.70
2010,07,08,09,09,25.80
2010,07,08,09,10,25.80
2010,07,08,09,11,25.80
2010,07,08,09,12,25.80
2010,07,08,09,13,25.90
2010,07,08,09,14,26.00
2010,07,08,09,15,26.00
2010,07,08,09,16,26.00
2010,07,08,09,17,26.00
2010,07,08,09,18,26.10
2010,07,08,09,19,26.10
2010,07,08,09,20,26.10
2010,07,08,09,21,26.10
2010,07,08,09,22,26.20
2010,07,08,09,23,26.20
2010,07,08,09,24,26.30
2010,07,08,09,25,26.30
2010,07,08,09,26,26.40
2010,07,08,09,27,26.40
2010,07,08,09,28,26.50
2010,07,08,09,29,26.60
2010,07,08,09,30,26.60
2010,07,08,09,31,26.70
2010,07,08,09,32,26.70
2010,07,08,09,33,26.80
2010,07,08,09,34,26.80
2010,07,08,09,35,26.80
2010,07,08,09,36,26.80
2010,07,08,09,37,26.90
2010,07,08,09,38,26.90
2010,07,08,09,39,27.00
2010,07,08,09,40,27.00
2010,07,08,09,41,27.00
2010,07,08,09,42,26.90
2010,07,08,09,43,26.90
2010,07,08,09,44,26.90
2010,07,08,09,45,26.90
2010,07,08,09,46,26.90
2010,07,08,09,47,27.00
2010,07,08,09,48,27.00
2010,07,08,09,49,27.10
2010,07,08,09,50,27.10
2010,07,08,09,51,27.10
2010,07,08,09,52,27.10
2010,07,08,09,53,27.10
2010,07,08,09,54,27.10
2010,07,08,09,55,27.10
2010,07,08,09,56,27.20
2010,07,08,09,57,27.20
2010,07,08,09,58,27.20
2010,07,08,09,59,27.30
2010,07,08,10,00,27.30
2010,07,08,10,01,27.40
2010,07,08,10,02,27.50
2010,07,08,10,03,27.60
2010,07,08,10,04,27.60
2010,07,08,10,05,27.70
2010,07,08,10,06,27.70
2010,07,08,10,07,27.70
2010,07,08,10,08,27.70
2010,07,08,10,09,27.60
2010,07,08,10,10,27.60
2010,07,08,10,11,27.60
2010,07,08,10,12,27.60
2010,07,08,10,13,27.70
2010,07,08,10,14,27.70
2010,07,08,10,15,27.70
2010,07,08,10,16,27.80
2010,07,08,10,17,27.80
2010,07,08,10,18,27.90
2010,07,08,10,19,28.00
2010,07,08,10,20,28.10
2010,07,08,10,21,28.20
2010,07,08,10,22,28.20
2010,07,08,10,23,28.30
2010,07,08,10,24,28.30
2010,07,08,10,25,28.30
2010,07,08,10,26,28.40
2010,07,08,10,27,28.40
2010,07,08,10,28,28.40
2010,07,08,10,29,28.40
2010,07,08,10,30,28.40
2010,07,08,10,31,28.50
2010,07,08,10,32,28.50
2010,07,08,10,33,28.60
2010,07,08,10,34,28.60
2010,07,08,10,35,28.60
2010,07,08,10,36,28.60
2010,07,08,10,37,28.70
2010,07,08,10,38,28.70
2010,07,08,10,39,28.70
2010,07,08,10,40,28.70
2010,07,08,10,41,28.70
2010,07,08,10,42,28.60
2010,07,08,10,43,28.60
2010,07,08,10,44,28.60
2010,07,08,10,45,28.60
2010,07,08,10,46,28.70
2010,07,08,10,47,28.70
2010,07,08,10,48,28.70
2010,07,08,10,49,28.80
2010,07,08,10,50,28.70
2010,07,08,10,51,28.60
2010,07,08,10,52,28.60
2010,07,08,10,53,28.50
2010,07,08,10,54,28.50
2010,07,08,10,55,28.40
2010,07,08,10,56,28.40
2010,07,08,10,57,28.30
2010,07,08,10,58,28.30
2010,07,08,10,59,28.30
2010,07,08,11,00,28.30
2010,07,08,11,01,28.30
2010,07,08,11,02,28.30
2010,07,08,11,03,28.30
2010,07,08,11,04,28.30
2010,07,08,11,05,28.30
2010,07,08,11,06,28.40
2010,07,08,11,07,28.40
2010,07,08,11,08,28.40
2010,07,08,11,09,28.40
2010,07,08,11,10,28.40
2010,07,08,11,11,28.40
2010,07,08,11,12,28.50
2010,07,08,11,13,28.50
2010,07,08,11,14,28.50
2010,07,08,11,15,28.40
2010,07,08,11,16,28.50
2010,07,08,11,17,28.50
2010,07,08,11,18,28.60
2010,07,08,11,19,28.60
2010,07,08,11,20,28.70
2010,07,08,11,21,28.70
2010,07,08,11,22,28.70
2010,07,08,11,23,28.70
2010,07,08,11,24,28.70
2010,07,08,11,25,28.80
2010,07,08,11,26,28.80
2010,07,08,11,27,28.80
2010,07,08,11,28,28.80
2010,07,08,11,29,28.80
2010,07,08,11,30,28.80
2010,07,08,11,31,28.80
2010,07,08,11,32,28.80
2010,07,08,11,33,28.80
2010,07,08,11,34,28.80
2010,07,08,11,35,28.80
2010,07,08,11,36,28.90
2010,07,08,11,37,28.90
2010,07,08,11,38,29.00
2010,07,08,11,39,29.10
2010,07,08,11,40,29.10
2010,07,08,11,41,29.10
2010,07,08,11,42,29.10
2010,07,08,11,43,29.10
2010,07,08,11,44,29.20
2010,07,08,11,45,29.20
2010,07,08,11,46,29.20
2010,07,08,11,47,29.30
2010,07,08,11,48,29.30
2010,07,08,11,49,29.30
2010,07,08,11,50,29.30
2010,07,08,11,51,29.30
2010,07,08,11,52,29.30
2010,07,08,11,53,29.30
2010,07,08,11,54,29.20
2010,07,08,11,55,29.30
2010,07,08,11,56,29.30
2010,07,08,11,57,29.30
2010,07,08,11,58,29.30
2010,07,08,11,59,29.30
2010,07,08,12,00,29.30
2010,07,08,12,01,29.40
2010,07,08,12,02,29.40
2010,07,08,12,03,29.40
2010,07,08,12,04,29.50
2010,07,08,12,05,29.50
2010,07,08,12,06,29.60
2010,07,08,12,07,29.60
2010,07,08,12,08,29.60
2010,07,08,12,09,29.70
2010,07,08,12,10,29.70
2010,07,08,12,11,29.80
2010,07,08,12,12,29.80
2010,07,08,12,13,29.80
2010,07,08,12,14,29.80
2010,07,08,12,15,29.90
2010,07,08,12,16,29.90
2010,07,08,12,17,29.90
2010,07,08,12,18,30.00
2010,07,08,12,19,30.00
2010,07,08,12,20,30.10
2010,07,08,12,21,30.10
2010,07,08,12,22,30.10
2010,07,08,12,23,30.10
2010,07,08,12,24,30.10
2010,07,08,12,25,30.10
2010,07,08,12,26,30.00
2010,07,08,12,27,30.00
2010,07,08,12,28,29.90
2010,07,08,12,29,29.90
2010,07,08,12,30,29.90
2010,07,08,12,31,29.90
2010,07,08,12,32,29.90
2010,07,08,12,33,29.90
2010,07,08,12,34,29.90
2010,07,08,12,35,29.90
2010,07,08,12,36,29.90
2010,07,08,12,37,29.90
2010,07,08,12,38,29.90
2010,07,08,12,39,30.00
2010,07,08,12,40,30.00
2010,07,08,12,41,30.10
2010,07,08,12,42,30.10
2010,07,08,12,43,30.20
2010,07,08,12,44,30.30
2010,07,08,12,45,30.30
2010,07,08,12,46,30.40
2010,07,08,12,47,30.50
2010,07,08,12,48,30.60
2010,07,08,12,49,30.60
2010,07,08,12,50,30.60
2010,07,08,12,51,30.60
2010,07,08,12,52,30.60
2010,07,08,12,53,30.60
2010,07,08,12,54,30.70
2010,07,08,12,55,30.60
2010,07,08,12,56,30.60
2010,07,08,12,57,30.60
2010,07,08,12,58,30.60
2010,07,08,12,59,30.50
2010,07,08,13,00,30.50
2010,07,08,13,01,30.50
2010,07,08,13,02,30.40
2010,07,08,13,03,30.40
2010,07,08,13,04,30.30
2010,07,08,13,05,30.30
2010,07,08,13,06,30.30
2010,07,08,13,07,30.30
2010,07,08,13,08,30.40
2010,07,08,13,09,30.40
2010,07,08,13,10,30.40
2010,07,08,13,11,30.40
2010,07,08,13,12,30.40
2010,07,08,13,13,30.30
2010,07,08,13,14,30.40
2010,07,08,13,15,30.40
2010,07,08,13,16,30.50
2010,07,08,13,17,30.60
2010,07,08,13,18,30.70
2010,07,08,13,19,30.80
2010,07,08,13,20,30.80
2010,07,08,13,21,30.90
2010,07,08,13,22,30.90
2010,07,08,13,23,31.00
2010,07,08,13,24,30.90
2010,07,08,13,25,30.80
2010,07,08,13,26,30.60
2010,07,08,13,27,30.50
2010,07,08,13,28,30.40
2010,07,08,13,29,30.40
2010,07,08,13,30,30.40
2010,07,08,13,31,30.30
2010,07,08,13,32,30.30
2010,07,08,13,33,30.20
2010,07,08,13,34,30.10
2010,07,08,13,35,30.10
2010,07,08,13,36,30.00
2010,07,08,13,37,30.00
2010,07,08,13,38,29.90
2010,07,08,13,39,29.90
2010,07,08,13,40,29.90
2010,07,08,13,41,29.90
2010,07,08,13,42,29.90
2010,07,08,13,43,29.90
2010,07,08,13,44,29.90
2010,07,08,13,45,29.90
2010,07,08,13,46,29.90
2010,07,08,13,47,29.90
2010,07,08,13,48,30.00
2010,07,08,13,49,30.00
2010,07,08,13,50,29.90
2010,07,08,13,51,29.90
2010,07,08,13,52,29.90
2010,07,08,13,53,29.80
2010,07,08,13,54,29.80
2010,07,08,13,55,29.70
2010,07,08,13,56,29.70
2010,07,08,13,57,29.70
2010,07,08,13,58,29.70
2010,07,08,13,59,29.70
2010,07,08,14,00,29.80
2010,07,08,14,01,29.80
2010,07,08,14,02,29.80
2010,07,08,14,03,29.80
2010,07,08,14,04,29.90
2010,07,08,14,05,29.90
2010,07,08,14,06,30.00
2010,07,08,14,07,30.00
2010,07,08,14,08,30.10
2010,07,08,14,09,30.20
2010,07,08,14,10,30.30
2010,07,08,14,11,30.40
2010,07,08,14,12,30.40
2010,07,08,14,13,30.40
2010,07,08,14,14,30.40
2010,07,08,14,15,30.50
2010,07,08,14,16,30.50
2010,07,08,14,17,30.50
2010,07,08,14,18,30.60
2010,07,08,14,19,30.60
2010,07,08,14,20,30.70
2010,07,08,14,21,30.70
2010,07,08,14,22,30.70
2010,07,08,14,23,30.80
2010,07,08,14,24,30.80
2010,07,08,14,25,30.80
2010,07,08,14,26,30.80
2010,07,08,14,27,30.80
2010,07,08,14,28,30.80
2010,07,08,14,29,30.80
2010,07,08,14,30,30.80
2010,07,08,14,31,30.80
2010,07,08,14,32,30.80
2010,07,08,14,33,30.80
2010,07,08,14,34,30.80
2010,07,08,14,35,30.80
2010,07,08,14,36,30.90
2010,07,08,14,37,30.90
2010,07,08,14,38,30.90
2010,07,08,14,39,30.80
2010,07,08,14,40,30.80
2010,07,08,14,41,30.70
2010,07,08,14,42,30.60
2010,07,08,14,43,30.60
2010,07,08,14,44,30.60
2010,07,08,14,45,30.50
2010,07,08,14,46,30.50
2010,07,08,14,47,30.50
2010,07,08,14,48,30.50
2010,07,08,14,49,30.50
2010,07,08,14,50,30.50
2010,07,08,14,51,30.50
2010,07,08,14,52,30.50
2010,07,08,14,53,30.60
2010,07,08,14,54,30.60
2010,07,08,14,55,30.60
2010,07,08,14,56,30.50
2010,07,08,14,57,30.60
2010,07,08,14,58,30.60
2010,07,08,14,59,30.60
2010,07,08,15,00,30.60
2010,07,08,15,01,30.60
2010,07,08,15,02,30.60
2010,07,08,15,03,30.70
2010,07,08,15,04,30.80
2010,07,08,15,05,30.80
2010,07,08,15,06,30.90
2010,07,08,15,07,30.90
2010,07,08,15,08,30.90
2010,07,08,15,09,30.90
2010,07,08,15,10,30.90
2010,07,08,15,11,30.90
2010,07,08,15,12,30.90
2010,07,08,15,13,31.00
2010,07,08,15,14,31.10
2010,07,08,15,15,31.10
2010,07,08,15,16,31.20
2010,07,08,15,17,31.30
2010,07,08,15,18,31.40
2010,07,08,15,19,31.50
2010,07,08,15,20,31.50
2010,07,08,15,21,31.60
2010,07,08,15,22,31.60
2010,07,08,15,23,31.60
2010,07,08,15,24,31.60
2010,07,08,15,25,31.70
2010,07,08,15,26,31.70
2010,07,08,15,27,31.70
2010,07,08,15,28,31.80
2010,07,08,15,29,31.80
2010,07,08,15,30,31.80
2010,07,08,15,31,31.80
2010,07,08,15,32,31.90
2010,07,08,15,33,32.00
2010,07,08,15,34,32.10
2010,07,08,15,35,32.10
2010,07,08,15,36,32.10
2010,07,08,15,37,32.20
2010,07,08,15,38,32.20
2010,07,08,15,39,32.10
2010,07,08,15,40,32.10
2010,07,08,15,41,32.00
2010,07,08,15,42,32.00
2010,07,08,15,43,32.00
2010,07,08,15,44,32.10
2010,07,08,15,45,32.10
2010,07,08,15,46,32.00
2010,07,08,15,47,32.00
2010,07,08,15,48,32.00
2010,07,08,15,49,32.10
2010,07,08,15,50,32.10
2010,07,08,15,51,32.10
2010,07,08,15,52,32.20
2010,07,08,15,53,32.20
2010,07,08,15,54,32.20
2010,07,08,15,55,32.20
2010,07,08,15,56,32.30
2010,07,08,15,57,32.40
2010,07,08,15,58,32.40
2010,07,08,15,59,32.50
2010,07,08,16,00,32.60
2010,07,08,16,01,32.70
2010,07,08,16,02,32.70
2010,07,08,16,03,32.70
2010,07,08,16,04,32.70
2010,07,08,16,05,32.60
2010,07,08,16,06,32.50
2010,07,08,16,07,32.40
2010,07,08,16,08,32.30
2010,07,08,16,09,32.20
2010,07,08,16,10,32.20
2010,07,08,16,11,32.10
2010,07,08,16,12,32.10
2010,07,08,16,13,32.10
2010,07,08,16,14,32.10
2010,07,08,16,15,32.00
2010,07,08,16,16,32.00
2010,07,08,16,17,32.00
2010,07,08,16,18,32.00
2010,07,08,16,19,32.10
2010,07,08,16,20,32.10
2010,07,08,16,21,32.10
2010,07,08,16,22,32.00
2010,07,08,16,23,32.00
2010,07,08,16,24,31.90
2010,07,08,16,25,31.90
2010,07,08,16,26,31.90
2010,07,08,16,27,31.90
2010,07,08,16,28,31.80
2010,07,08,16,29,31.70
2010,07,08,16,30,31.60
2010,07,08,16,31,31.50
2010,07,08,16,32,31.50
2010,07,08,16,33,31.40
2010,07,08,16,34,31.40
2010,07,08,16,35,31.40
2010,07,08,16,36,31.40
2010,07,08,16,37,31.40
2010,07,08,16,38,31.40
2010,07,08,16,39,31.50
2010,07,08,16,40,31.50
2010,07,08,16,41,31.60
2010,07,08,16,42,31.60
2010,07,08,16,43,31.70
2010,07,08,16,44,31.80
2010,07,08,16,45,31.80
2010,07,08,16,46,31.80
2010,07,08,16,47,31.80
2010,07,08,16,48,31.80
2010,07,08,16,49,31.80
2010,07,08,16,50,31.80
2010,07,08,16,51,31.80
2010,07,08,16,52,31.80
2010,07,08,16,53,31.80
2010,07,08,16,54,31.80
2010,07,08,16,55,31.80
2010,07,08,16,56,31.80
2010,07,08,16,57,31.80
2010,07,08,16,58,31.80
2010,07,08,16,59,31.80
2010,07,08,17,00,31.70
2010,07,08,17,01,31.60
2010,07,08,17,02,31.60
2010,07,08,17,03,31.60
2010,07,08,17,04,31.50
2010,07,08,17,05,31.50
2010,07,08,17,06,31.40
2010,07,08,17,07,31.40
2010,07,08,17,08,31.30
2010,07,08,17,09,31.30
2010,07,08,17,10,31.30
2010,07,08,17,11,31.20
2010,07,08,17,12,31.20
2010,07,08,17,13,31.30
2010,07,08,17,14,31.30
2010,07,08,17,15,31.30
2010,07,08,17,16,31.30
2010,07,08,17,17,31.30
2010,07,08,17,18,31.20
2010,07,08,17,19,31.20